GW5948 Weather Reports


Display with metric or nautical units.
time (UTC)temp
F
wind
direction
speed
MPH
gust
MPH
rain 1hr
in
rain 24hr
in
rain mn
in
humidity
%
barometer
mb
20260906042521 59 320 5.0 9.0 0.00 0.21 0.00 90 1017.3
20260906041522 59 299 4.0 10.0 0.00 0.21 0.00 89 1016.9
20260906040542 58 239 3.0 7.0 0.00 0.21 0.00 90 1016.6
20260906035521 57 240 3.0 6.0 0.00 0.21 0.00 90 1016.4
20260906034521 57 177 2.0 4.0 0.00 0.21 0.00 90 1016.2
20260906033521 58 173 3.0 4.0 0.00 0.21 0.00 90 1016.3
20260906032521 58 187 2.0 5.0 0.00 0.21 0.00 89 1016.1
20260906031543 58 205 1.0 3.0 0.00 0.21 0.00 89 1016.0
20260906030522 58 256 2.0 4.0 0.00 0.21 0.00 89 1016.1
20260906025522 58 301 1.0 3.0 0.00 0.21 0.00 89 1016.1
20260906024524 58 294 2.0 3.0 0.00 0.21 0.00 89 1016.0
20260906023521 58 288 1.0 3.0 0.00 0.21 0.00 90 1015.9
20260906022522 59 278 2.0 5.0 0.00 0.21 0.00 90 1015.8
20260906021521 59 278 3.0 5.0 0.00 0.21 0.00 89 1015.8
20260906020521 59 227 3.0 7.0 0.00 0.21 0.00 90 1015.9
20260906015522 59 268 3.0 5.0 0.00 0.21 0.00 90 1015.9
20260906014521 59 273 5.0 7.0 0.00 0.21 0.00 91 1015.9
20260906013523 59 272 4.0 7.0 0.00 0.21 0.00 92 1016.0
20260906012521 59 276 3.0 5.0 0.00 0.21 0.00 92 1015.9
20260906011523 59 270 3.0 4.0 0.00 0.21 0.00 92 1015.9
20260906010521 59 274 3.0 4.0 0.00 0.21 0.00 91 1016.0
20260906005521 59 264 2.0 5.0 0.00 0.21 0.00 91 1016.0
20260906004521 60 237 3.0 6.0 0.00 0.21 0.00 90 1016.0
20260906003521 60 242 3.0 5.0 0.00 0.21 0.00 90 1016.2
20260906002522 59 266 4.0 7.0 0.00 0.21 0.00 92 1016.2
20260906001522 59 294 3.0 6.0 0.00 0.21 0.00 92 1016.3
20260906000523 60 274 2.0 4.0 0.00 0.21 0.00 92 1016.3
20260905235521 60 282 2.0 4.0 0.00 0.21 0.00 91 1016.3
20260905234521 61 261 1.0 4.0 0.00 0.21 0.00 89 1016.3
20260905233522 61 195 2.0 4.0 0.00 0.21 0.00 90 1016.3
20260905232522 61 235 2.0 6.0 0.00 0.21 0.00 90 1016.5
20260905231522 61 213 2.0 5.0 0.00 0.21 0.00 89 1016.6
20260905230522 61 229 2.0 5.0 0.00 0.21 0.00 88 1016.6
20260905225522 62 257 2.0 6.0 0.00 0.21 0.00 87 1016.5
20260905224523 61 254 5.0 9.0 0.00 0.21 0.00 88 1016.5
20260905223542 61 268 5.0 7.0 0.00 0.21 0.00 89 1016.5
20260905222522 61 265 5.0 10.0 0.00 0.21 0.00 89 1016.6
20260905221522 61 256 6.0 11.0 0.00 0.21 0.00 89 1016.4
20260905220521 61 294 6.0 11.0 0.00 0.21 0.00 90 1016.4
20260905215521 61 279 4.0 6.0 0.00 0.21 0.00 90 1016.2
20260905214521 61 285 4.0 8.0 0.00 0.21 0.00 90 1016.2
20260905213521 61 276 5.0 7.0 0.00 0.21 0.00 90 1016.2
20260905212522 61 273 5.0 8.0 0.00 0.21 0.00 91 1016.0
20260905211522 61 276 5.0 7.0 0.00 0.21 0.00 91 1015.9
20260905210522 61 269 5.0 8.0 0.00 0.21 0.00 91 1015.9
20260905205521 61 293 5.0 7.0 0.00 0.21 0.21 93 1015.7
20260905204541 60 279 5.0 8.0 0.00 0.21 0.21 93 1015.7
20260905203522 60 283 4.0 6.0 0.00 0.21 0.21 93 1015.7
20260905202522 61 274 3.0 4.0 0.00 0.21 0.21 93 1015.6
20260905201542 61 279 3.0 4.0 0.00 0.21 0.21 93 1015.5
20260905200522 61 270 4.0 5.0 0.00 0.21 0.21 92 1015.4
20260905195521 61 276 2.0 4.0 0.00 0.21 0.21 92 1015.5
20260905194540 61 277 4.0 6.0 0.00 0.21 0.21 93 1015.3
20260905193522 61 305 3.0 6.0 0.00 0.21 0.21 92 1015.4
20260905192522 61 293 4.0 7.0 0.00 0.21 0.21 92 1015.5
20260905191520 61 315 4.0 8.0 0.00 0.21 0.21 92 1015.1
20260905190521 61 306 3.0 8.0 0.00 0.21 0.21 92 1015.2
20260905185521 61 285 5.0 9.0 0.00 0.21 0.21 92 1015.4
20260905184521 61 295 4.0 6.0 0.00 0.21 0.21 93 1015.4
20260905183521 61 287 5.0 7.0 0.00 0.21 0.21 94 1015.2
20260905182522 61 291 3.0 6.0 0.00 0.21 0.21 95 1015.2
20260905181520 61 304 5.0 9.0 0.01 0.21 0.21 96 1015.1
20260905180521 62 320 4.0 8.0 0.05 0.21 0.21 96 1015.0
20260905175522 62 326 6.0 10.0 0.21 0.21 0.21 96 1014.8
20260905174522 62 340 5.0 9.0 0.21 0.21 0.21 95 1014.8
20260905173521 62 326 5.0 13.0 0.21 0.21 0.21 95 1014.6
20260905172521 62 336 7.0 13.0 0.21 0.21 0.21 94 1014.4
20260905171541 63 314 9.0 16.0 0.20 0.20 0.20 93 1013.9
20260905170522 65 306 14.0 27.0 0.16 0.16 0.16 85 1014.0
20260905165521 66 325 8.0 21.0 0.00 0.00 0.00 77 1014.7
20260905164521 69 324 11.0 19.0 0.00 0.00 0.00 68 1014.5
20260905163522 70 321 6.0 12.0 0.00 0.00 0.00 59 1013.8
20260905162521 70 342 6.0 14.0 0.00 0.00 0.00 57 1013.5
20260905161521 71 355 8.0 15.0 0.00 0.00 0.00 57 1013.2
20260905160541 71 340 8.0 18.0 0.00 0.00 0.00 56 1013.3
20260905155521 71 333 10.0 19.0 0.00 0.00 0.00 55 1013.1
20260905154521 71 340 11.0 24.0 0.00 0.00 0.00 53 1013.1
20260905153541 72 329 10.0 19.0 0.00 0.00 0.00 53 1013.1
20260905152520 73 320 13.0 26.0 0.00 0.00 0.00 52 1013.0
20260905151521 73 333 9.0 20.0 0.00 0.00 0.00 53 1012.8
20260905150521 73 327 10.0 20.0 0.00 0.00 0.00 52 1012.7
20260905145541 74 324 10.0 24.0 0.00 0.00 0.00 53 1012.5
20260905144521 75 332 12.0 24.0 0.00 0.00 0.00 53 1012.2
20260905143522 74 329 11.0 20.0 0.00 0.00 0.00 56 1012.0
20260905142522 76 329 11.0 26.0 0.00 0.00 0.00 54 1012.0
20260905141542 78 326 12.0 22.0 0.00 0.00 0.00 49 1012.1
20260905140521 81 320 12.0 23.0 0.00 0.00 0.00 47 1011.6
20260905135521 84 328 11.0 22.0 0.00 0.00 0.00 46 1011.2
20260905134521 87 332 12.0 21.0 0.00 0.00 0.00 43 1010.9
20260905133522 88 293 5.0 9.0 0.00 0.00 0.00 39 1010.5
20260905132522 90 277 7.0 10.0 0.00 0.00 0.00 37 1010.4
20260905131524 91 261 7.0 11.0 0.00 0.00 0.00 36 1010.2
20260905130542 90 274 6.0 9.0 0.00 0.00 0.00 37 1010.4
20260905125520 89 259 5.0 7.0 0.00 0.00 0.00 37 1010.4
20260905124521 89 245 6.0 11.0 0.00 0.00 0.00 36 1010.6
20260905123521 90 245 8.0 15.0 0.00 0.00 0.00 36 1010.6
20260905122520 90 225 9.0 13.0 0.00 0.00 0.00 35 1010.6
20260905121520 90 223 9.0 14.0 0.00 0.00 0.00 36 1010.7
20260905120521 91 214 7.0 12.0 0.00 0.00 0.00 36 1010.9
20260905115521 90 221 7.0 11.0 0.00 0.00 0.00 37 1010.9
20260905114520 89 212 4.0 9.0 0.00 0.00 0.00 38 1011.1
20260905113520 88 214 5.0 9.0 0.00 0.00 0.00 40 1011.1
20260905112521 87 198 4.0 6.0 0.00 0.00 0.00 40 1011.1
20260905111521 87 215 6.0 11.0 0.00 0.00 0.00 39 1011.3
20260905110522 87 211 6.0 13.0 0.00 0.00 0.00 41 1011.1
20260905105540 87 208 9.0 13.0 0.00 0.00 0.00 40 1011.1
20260905104521 86 190 6.0 13.0 0.00 0.00 0.00 40 1011.1
20260905103541 86 217 8.0 12.0 0.00 0.00 0.00 40 1011.2
20260905102521 87 229 8.0 14.0 0.00 0.00 0.00 41 1011.4
20260905101521 86 220 9.0 16.0 0.00 0.00 0.00 40 1011.5
20260905100522 87 200 12.0 19.0 0.00 0.00 0.00 40 1011.5
20260905095522 87 214 9.0 14.0 0.00 0.00 0.00 40 1011.5
20260905094522 88 232 8.0 15.0 0.00 0.00 0.00 39 1011.7
20260905093522 87 219 9.0 17.0 0.00 0.00 0.00 40 1011.5
20260905092522 86 198 9.0 13.0 0.00 0.00 0.00 41 1011.5
20260905085521 85 202 10.0 16.0 0.00 0.00 0.00 43 1012.0
20260905084522 84 202 10.0 16.0 0.00 0.00 0.00 43 1012.0
20260905083522 84 198 11.0 19.0 0.00 0.00 0.00 44 1012.0
20260905082601 83 204 10.0 14.0 0.00 0.00 0.00 45 1012.1
20260905081521 82 200 9.0 14.0 0.00 0.00 0.00 46 1012.3
20260905080542 81 196 8.0 13.0 0.00 0.00 0.00 47 1012.4
20260905075540 81 206 10.0 15.0 0.00 0.00 0.00 48 1012.6
20260905074521 80 199 11.0 16.0 0.00 0.00 0.00 47 1012.6
20260905073541 80 204 11.0 16.0 0.00 0.00 0.00 48 1012.6
20260905072521 79 188 10.0 17.0 0.00 0.00 0.00 49 1012.7
20260905071602 79 204 9.0 15.0 0.00 0.00 0.00 50 1012.8
20260905070520 78 204 9.0 16.0 0.00 0.00 0.00 51 1012.7
20260905065521 77 188 9.0 14.0 0.00 0.00 0.00 52 1012.9
20260905064521 76 199 9.0 14.0 0.00 0.00 0.00 54 1013.0
20260905063542 75 197 10.0 14.0 0.00 0.00 0.00 55 1012.8
20260905062522 74 199 9.0 14.0 0.00 0.00 0.00 57 1012.8
20260905061521 73 210 9.0 13.0 0.00 0.00 0.00 58 1012.9
20260905060521 73 197 8.0 12.0 0.00 0.00 0.00 58 1012.9
20260905055522 72 201 5.0 10.0 0.00 0.00 0.00 59 1012.8
20260905054521 71 202 3.0 7.0 0.00 0.00 0.00 60 1012.9
20260905053522 70 188 4.0 6.0 0.00 0.00 0.00 61 1012.9
20260905052522 70 166 3.0 5.0 0.00 0.00 0.00 62 1012.9
20260905051542 70 161 2.0 4.0 0.00 0.00 0.00 62 1012.8
20260905050520 68 161 3.0 5.0 0.00 0.00 0.00 63 1012.8
20260905045521 68 190 4.0 7.0 0.00 0.00 0.00 63 1012.8
20260905044522 67 181 4.0 6.0 0.00 0.00 0.00 64 1012.8
20260905043540 67 180 5.0 8.0 0.00 0.00 0.00 64 1012.8